Voltar ao catálogo

NANKEDA-1

AtivoCiênciaSSO
NORAD 64049·PAYLOAD·🇨🇳 China
Este nome de satélite ainda não foi confirmado por fontes oficiais.

Lançado May 17, 2025 de Jiuquan Satellite Launch Center

Loading…

Próximas Passagens (próximas 24 horas)

TLE

AtualizadoSource: Space-Track

Época: Sep 14, 2026, 15:08 UTC

1 64049U 25103B   26257.63119590  .00002710  00000-0  12795-3 0  9997
2 64049  97.3718 327.5376 0001220 176.4970 183.6274 15.20278166 73652

Acompanhe NANKEDA-1 em tempo real com AllMySat

Download on the App Store